This demonstration page uses our WeatherBlox Daily Observations layout. Learn more.

38.88101, -77.10428

Hourly Observations for March 3, 2018

Temp ( °F °C ) Dew Point ( °F °C ) Humidity (%) Winds ( mph kmh ) Pressure ( in mb ) Visibility ( mi km ) Precip ( " mm )
12:52 am 00:52 Mostly Cloudy 40 4.4 22 -5.6 49 49 NNW 22 35 30.01 1016 10 16.0934 0 0
1:52 am 01:52 Partly Cloudy 39 3.9 22 -5.6 50 50 NW 22 35 30.02 1017 10 16.0934 0 0
2:52 am 02:52 Partly Cloudy 38 3.3 22 -5.6 52 52 NW 22 35 30.03 1017 10 16.0934 0 0
3:52 am 03:52 Partly Cloudy 37 2.8 22 -5.6 54 54 NNW 18 30 30.04 1017 10 16.0934 0 0
4:52 am 04:52 Partly Cloudy 37 2.8 22 -5.6 54 54 NNW 16 26 30.05 1018 10 16.0934 0 0
5:52 am 05:52 Mostly Cloudy 37 2.8 22 -5.6 54 54 NNW 22 35 30.06 1018 10 16.0934 0 0
6:52 am 06:52 Mostly Cloudy 37 2.8 22 -5.6 54 54 NNW 23 37 30.09 1019 10 16.0934 0 0
7:52 am 07:52 Mostly Cloudy 37 2.8 22 -5.6 54 54 NNW 18 30 30.1 1019 10 16.0934 0 0
8:52 am 08:52 Mostly Cloudy 38 3.3 22 -5.6 52 52 NNW 21 33 30.1 1019 10 16.0934 0 0
9:52 am 09:52 Mostly Cloudy 44 6.7 25 -3.9 47 47 NNW 16 26 30.11 1020 10 16.0934 0 0
10:52 am 10:52 Cloudy 47 8.3 25 -3.9 42 42 N 18 30 30.13 1020 10 16.0934 0 0
11:52 am 11:52 Mostly Cloudy 49 9.4 26 -3.3 41 41 NW 17 28 30.13 1020 10 16.0934 0 0
12:52 pm 12:52 Partly Cloudy 51 10.6 27 -2.8 39 39 NNW 23 37 30.12 1020 10 16.0934 0 0
1:52 pm 13:52 Partly Cloudy 52 11.1 27 -2.8 38 38 NNW 25 41 30.11 1020 10 16.0934 0 0
2:52 pm 14:52 Partly Cloudy 52 11.1 28 -2.2 40 40 NW 25 41 30.09 1019 10 16.0934 0 0
3:52 pm 15:52 Mostly Sunny 52 11.1 28 -2.2 40 40 NNW 23 37 30.11 1020 10 16.0934 0 0
4:52 pm 16:52 Mostly Sunny 50 10 27 -2.8 41 41 NW 20 31 30.13 1020 10 16.0934 0 0
5:52 pm 17:52 Mostly Sunny 47 8.3 26 -3.3 44 44 NNW 28 44 30.15 1021 10 16.0934 0 0
6:52 pm 18:52 Clear 44 6.7 26 -3.3 49 49 N 21 33 30.18 1022 10 16.0934 0 0
7:52 pm 19:52 Clear 43 6.1 26 -3.3 51 51 NNW 22 35 30.2 1023 10 16.0934 0 0
8:52 pm 20:52 Clear 41 5 25 -3.9 53 53 NNW 20 31 30.21 1023 10 16.0934 0 0
9:52 pm 21:52 Clear 40 4.4 25 -3.9 55 55 NNW 20 31 30.22 1024 10 16.0934 0 0
10:09 pm 22:09 Partly Cloudy 40 4.4 25 -3.9 55 55 NNW 15 24 30.24 1024 10 16.0934 0 0
10:52 pm 22:52 Mostly Cloudy 40 4.4 25 -3.9 55 55 N 12 19 30.24 1024 10 16.0934 0 0
11:52 pm 23:52 Cloudy 40 4.4 25 -3.9 55 55 NNW 16 26 30.24 1024 10 16.0934 0 0

Powered by AerisWeather